Chillicothe, MO

9:15 AM CST on February 27, 2017 (GMT -0600)
Chillicothe

Weather History for KCDJ - April, 2014

Change the Weather History Date:

Thursday, April 24, 2014

  Actual Average (KIRK) Record (KIRK)
Temperature  
Mean Temperature 58 °F -  
Max Temperature 62 °F 66 °F 87 °F (1989)
Min Temperature 53 °F 41 °F 20 °F (1956)
Degree Days  
Heating Degree Days 8    
Growing Degree Days 8 (Base 50)    
Moisture  
Dew Point 46 °F    
Average Humidity 71    
Maximum Humidity 90    
Minimum Humidity 46    
Precipitation  
Precipitation 0.76 in - - ()
Sea Level Pressure  
Sea Level Pressure 29.71 in    
Wind  
Wind Speed 8 mph (SE)    
Max Wind Speed 14 mph    
Max Gust Speed 21 mph    
Averages and records for this station are not official NWS values.
T = Trace of Precipitation, MM = Missing Value Source: NWS Daily Summary

Daily Weather History Graph

Daily Weather History Graph

Search for Another Location

Airport or City:

Trip Planner

Search our weather history database for the weather conditions in past years. The results will help you decide how hot, cold, wet, or windy it might be!

Date:

Astronomy

Apr. 24, 2014 Rise Set
Actual Time 6:23 AM CDT 8:01 PM CDT
Civil Twilight 5:55 AM CDT 8:30 PM CDT
Nautical Twilight 5:20 AM CDT 9:05 PM CDT
Astronomical Twilight 4:43 AM CDT 9:42 PM CDT
Moon 3:34 AM CDT (4/24) 3:18 PM CDT (4/24)
Length of Visible Light 14h 35m
Length of Day
13h 37m
Waning Crescent, 24% of the Moon is Illuminated
Apr 24
Waning Crescent
Apr 29
New
May 6
First Quarter
May 14
Full
May 21
Last Quarter

Hourly Weather History & Observations

Time (CDT) Temp. Dew Point Humidity Pressure Visibility Wind Dir Wind Speed Gust Speed Precip Events Conditions
12:52 AM 57.9 °F 39.0 °F 49% 29.77 in - SSE 9.2 mph 17.3 mph N/A   Unknown
1:52 AM 59.0 °F 39.0 °F 48% 29.74 in - SE 9.2 mph - N/A   Unknown
2:52 AM 59.0 °F 39.9 °F 49% 29.69 in - SE 9.2 mph - N/A   Unknown
3:52 AM 61.0 °F 39.9 °F 46% 29.67 in - Variable 5.8 mph - N/A   Unknown
4:52 AM 62.1 °F 41.0 °F 46% 29.65 in - SE 10.4 mph 20.7 mph N/A   Unknown
5:52 AM 57.9 °F 45.0 °F 62% 29.70 in - ESE 5.8 mph - N/A   Unknown
6:52 AM 60.1 °F 43.0 °F 53% 29.69 in - ESE 8.1 mph - N/A   Unknown
7:52 AM 60.1 °F 42.1 °F 51% 29.69 in - SE 9.2 mph - N/A   Unknown
8:52 AM 57.9 °F 44.1 °F 60% 29.70 in - SE 5.8 mph - N/A   Unknown
9:52 AM 53.1 °F 50.0 °F 89% 29.73 in - South 3.5 mph - 0.19 in   Unknown
10:52 AM 54.0 °F 51.1 °F 90% 29.70 in - SE 13.8 mph 20.7 mph 0.33 in   Unknown
11:52 AM 54.0 °F 48.9 °F 83% 29.68 in - SE 10.4 mph - 0.08 in   Unknown
12:52 PM 57.9 °F 53.1 °F 84% 29.62 in - SE 11.5 mph - 0.01 in   Unknown
1:52 PM 57.0 °F 53.1 °F 87% 29.60 in - Variable 3.5 mph - 0.04 in   Unknown
3:52 PM 55.9 °F 53.1 °F 90% 29.62 in - North 10.4 mph - 0.08 in   Unknown
4:52 PM 55.0 °F 51.1 °F 86% 29.67 in - NW 8.1 mph - 0.02 in   Unknown
5:52 PM 55.0 °F 51.1 °F 86% 29.69 in - NW 10.4 mph - 0.01 in   Unknown
6:52 PM 54.0 °F 50.0 °F 86% 29.73 in - NW 10.4 mph 20.7 mph N/A   Unknown
7:52 PM 54.0 °F 46.9 °F 77% 29.76 in - NW 9.2 mph 18.4 mph N/A   Unknown
8:52 PM 53.1 °F 46.0 °F 77% 29.78 in - NW 6.9 mph - N/A   Unknown
9:52 PM 54.0 °F 46.0 °F 75% 29.80 in - NW 4.6 mph - N/A   Unknown
10:52 PM 53.1 °F 46.0 °F 77% 29.81 in - NW 6.9 mph - N/A   Unknown
11:52 PM 53.1 °F 45.0 °F 74% 29.82 in - NW 8.1 mph - N/A   Unknown